User: anonymous   Login
Location: Goudex
(43.3760°N, 0.9543°E)
Time: 10:55:09
(UTC+00:00)
Language:

NOSS 3-3 (C) - Orbit

View from above orbital plane
View from above orbital plane
View from above satellite
View from above satellite

Ground track
Ground track

The orbit data is extracted from the following two-line orbital elements,

1 28541U 05004C   20019.81315154 0.00000000  00000-0  00000-0 0    02
2 28541  63.4174 294.2197 0349425 358.3464   1.6536 13.40796713    03
Epoch (UTC): 19 January 2020 19:30:56
Eccentricity: 0.0349425
inclination: 63.4174°
perigee height: 845 km
apogee height: 1368 km
right ascension of ascending node: 294.2197°
argument of perigee: 358.3464°
revolutions per day: 13.40796713
mean anomaly at epoch: 1.6536°
orbit number at epoch: 0

The dashed part of the orbit path shows where the satellite is in the earth's shadow,  

DLR